Location: Taupo
(38.6830°S, 176.0830°E)
Time: 17:04:00
(UTC+13:00)

Meteor 2-6 Rocket - Pass Details

Date: 24 January 2019
Orbit: 806 x 914 km, 81.3° (Epoch: 23 October)

Event Time Altitude Azimuth Distance (km) Brightness Sun altitude
Exits shadow 23:40:00 65° 108° (ESE) 893 4.2 -26.8°
Drops below altitude 10° 23:45:05 10° 165° (SSE) 2,426 7.2 -27.3°
Sets 23:47:31 0° 168° (SSE) 3,372 8.1 -27.5°
